Weather History for Washington, GA

Change the Weather History Date:

Sunday, December 30, 2012

  Actual Average (KDBN) Record (KDBN)
Temperature  
Mean Temperature 42 °F -  
Max Temperature 51 °F 59 °F 80 °F (1984)
Min Temperature 32 °F 34 °F 16 °F (1977)
Degree Days  
Heating Degree Days 24    
Moisture  
Dew Point 24 °F    
Average Humidity 60    
Maximum Humidity 87    
Minimum Humidity 26    
Precipitation  
Precipitation 0.00 in - - ()
Sea Level Pressure  
Sea Level Pressure 30.32 in    
Wind  
Wind Speed 6 mph (WNW)    
Max Wind Speed 10 mph    
Max Gust Speed 24 mph    
Visibility 10 miles    
Events      
Averages and records for this station are not official NWS values.
T = Trace of Precipitation, MM = Missing Value Source: NWS Daily Summary

Daily Weather History Graph

Daily Weather History Graph

Search for Another Location

Airport:

Trip Planner

Search our weather history database for the weather conditions in past years. The results will help you decide how hot, cold, wet, or windy it might be!

Date:

Astronomy

Dec. 30, 2012 Rise Set
Actual Time 7:35 AM EST 5:32 PM EST
Civil Twilight 7:08 AM EST 6:00 PM EST
Nautical Twilight 6:37 AM EST 6:31 PM EST
Astronomical Twilight 6:06 AM EST 7:01 PM EST
Moon 7:55 PM EST (12/30) 8:50 AM EST (12/30)
Length of Visible Light 10h 51m
Length of Day
9h 56m
Waning Gibbous, 95% of the Moon is Illuminated
Dec 30
Waning Gibbous
Jan 4
Last Quarter
Jan 11
New
Jan 18
First Quarter
Jan 26
Full

Hourly Weather History & Observations

Time (EST) Temp. Windchill Dew Point Humidity Pressure Visibility Wind Dir Wind Speed Gust Speed Precip Events Conditions
12:15 AM 37.4 °F 30.3 °F 21.2 °F 52% 30.15 in 10.0 mi WNW 10.4 mph 24.2 mph N/A   Clear
12:35 AM 37.4 °F 30.8 °F 23.0 °F 56% 30.15 in 10.0 mi WNW 9.2 mph - N/A   Clear
1:15 AM 37.4 °F 31.4 °F 23.0 °F 56% 30.15 in 10.0 mi WNW 8.1 mph - N/A   Clear
1:35 AM 35.6 °F 28.0 °F 21.2 °F 56% 30.16 in 10.0 mi WNW 10.4 mph - N/A   Clear
1:55 AM 35.6 °F 29.2 °F 21.2 °F 56% 30.16 in 10.0 mi WNW 8.1 mph - N/A   Clear
2:15 AM 35.6 °F 28.0 °F 21.2 °F 56% 30.17 in 10.0 mi WNW 10.4 mph 16.1 mph N/A   Clear
2:35 AM 35.6 °F 29.2 °F 23.0 °F 60% 30.18 in 10.0 mi West 8.1 mph - N/A   Clear
2:55 AM 33.8 °F 26.4 °F 23.0 °F 65% 30.19 in 10.0 mi West 9.2 mph - N/A   Clear
3:15 AM 33.8 °F 27.0 °F 23.0 °F 65% 30.20 in 10.0 mi WNW 8.1 mph - N/A   Clear
3:35 AM 33.8 °F 27.7 °F 23.0 °F 65% 30.21 in 10.0 mi West 6.9 mph - N/A   Clear
3:55 AM 33.8 °F 26.4 °F 24.8 °F 70% 30.21 in 10.0 mi West 9.2 mph - N/A   Clear
4:15 AM 33.8 °F 26.4 °F 24.8 °F 70% 30.21 in 10.0 mi WNW 9.2 mph - N/A   Clear
4:35 AM 33.8 °F 27.0 °F 24.8 °F 70% 30.21 in 10.0 mi WNW 8.1 mph - N/A   Clear
4:55 AM 33.8 °F 27.0 °F 26.6 °F 75% 30.21 in 10.0 mi West 8.1 mph - N/A   Clear
5:15 AM 33.8 °F 25.8 °F 26.6 °F 75% 30.22 in 10.0 mi West 10.4 mph - N/A   Clear
5:35 AM 33.8 °F 29.6 °F 26.6 °F 75% 30.23 in 10.0 mi West 4.6 mph - N/A   Clear
5:55 AM 33.8 °F 27.0 °F 26.6 °F 75% 30.24 in 10.0 mi West 8.1 mph - N/A   Clear
6:15 AM 33.8 °F 26.4 °F 26.6 °F 75% 30.26 in 10.0 mi West 9.2 mph - N/A   Clear
6:35 AM 33.8 °F 26.4 °F 26.6 °F 75% 30.26 in 10.0 mi WNW 9.2 mph 16.1 mph N/A   Clear
6:55 AM 33.8 °F 27.0 °F 26.6 °F 75% 30.27 in 10.0 mi WNW 8.1 mph - N/A   Clear
7:15 AM 33.8 °F 26.4 °F 26.6 °F 75% 30.28 in 10.0 mi West 9.2 mph - N/A   Clear
7:35 AM 33.8 °F 27.0 °F 26.6 °F 75% 30.30 in 10.0 mi WNW 8.1 mph - N/A   Clear
7:55 AM 33.8 °F 27.7 °F 26.6 °F 75% 30.31 in 10.0 mi WNW 6.9 mph - N/A   Clear
8:15 AM 33.8 °F 27.7 °F 26.6 °F 75% 30.31 in 10.0 mi WNW 6.9 mph - N/A   Clear
8:35 AM 33.8 °F 27.7 °F 24.8 °F 70% 30.32 in 10.0 mi WNW 6.9 mph - N/A   Clear
8:55 AM 33.8 °F 28.6 °F 23.0 °F 65% 30.33 in 10.0 mi WNW 5.8 mph - N/A   Clear
9:15 AM 35.6 °F 29.2 °F 24.8 °F 65% 30.35 in 10.0 mi NW 8.1 mph - N/A   Clear
9:35 AM 37.4 °F 30.8 °F 26.6 °F 65% 30.36 in 10.0 mi NW 9.2 mph - N/A   Clear
9:55 AM 37.4 °F 32.1 °F 23.0 °F 56% 30.38 in 10.0 mi NW 6.9 mph - N/A   Clear
10:15 AM 39.2 °F 33.0 °F 23.0 °F 52% 30.38 in 10.0 mi NW 9.2 mph - N/A   Clear
10:35 AM 41.0 °F 36.4 °F 23.0 °F 49% 30.39 in 10.0 mi NW 6.9 mph - N/A   Clear
10:55 AM 41.0 °F 35.8 °F 21.2 °F 45% 30.40 in 10.0 mi NNW 8.1 mph - N/A   Clear
11:15 AM 42.8 °F 39.3 °F 21.2 °F 42% 30.40 in 10.0 mi West 5.8 mph - N/A   Clear
11:35 AM 42.8 °F 40.1 °F 21.2 °F 42% 30.40 in 10.0 mi NW 4.6 mph - N/A   Clear
11:55 AM 42.8 °F 40.1 °F 19.4 °F 39% 30.40 in 10.0 mi WNW 4.6 mph - N/A   Clear
12:15 PM 44.6 °F - 19.4 °F 37% 30.39 in 10.0 mi Calm Calm - N/A   Clear
12:35 PM 46.4 °F - 21.2 °F 37% 30.39 in 10.0 mi Calm Calm - N/A   Clear
12:55 PM 46.4 °F 44.3 °F 19.4 °F 34% 30.37 in 10.0 mi WSW 4.6 mph - N/A   Clear
1:15 PM 46.4 °F 44.3 °F 17.6 °F 32% 30.37 in 10.0 mi WNW 4.6 mph - N/A   Clear
1:35 PM 48.2 °F - 17.6 °F 30% 30.36 in 10.0 mi Calm Calm - N/A   Clear
1:55 PM 48.2 °F - 17.6 °F 30% 30.36 in 10.0 mi Calm Calm - N/A   Clear
2:15 PM 50.0 °F - 17.6 °F 28% 30.36 in 10.0 mi Calm Calm - N/A   Clear
2:35 PM 51.8 °F - 19.4 °F 28% 30.36 in 10.0 mi West 3.5 mph - N/A   Clear
2:55 PM 51.8 °F - 19.4 °F 28% 30.36 in 10.0 mi Calm Calm - N/A   Clear
3:15 PM 51.8 °F - 17.6 °F 26% 30.36 in 10.0 mi Calm Calm - N/A   Clear
3:35 PM 51.8 °F - 17.6 °F 26% 30.36 in 10.0 mi NNW 3.5 mph - N/A   Clear
3:55 PM 51.8 °F - 19.4 °F 28% 30.37 in 10.0 mi Calm Calm - N/A   Clear
4:15 PM 51.8 °F - 19.4 °F 28% 30.36 in 10.0 mi Calm Calm - N/A   Clear
4:35 PM 51.8 °F - 19.4 °F 28% 30.36 in 10.0 mi SW 3.5 mph - N/A   Clear
4:55 PM 48.2 °F - 19.4 °F 32% 30.37 in 10.0 mi Calm Calm - N/A   Clear
5:15 PM 46.4 °F - 24.8 °F 43% 30.37 in 10.0 mi Calm Calm - N/A   Clear
5:35 PM 42.8 °F 41.1 °F 28.4 °F 57% 30.38 in 10.0 mi West 3.5 mph - N/A   Clear
5:55 PM 41.0 °F 39.0 °F 28.4 °F 61% 30.38 in 10.0 mi West 3.5 mph - N/A   Clear
6:15 PM 41.0 °F - 30.2 °F 65% 30.38 in 10.0 mi Calm Calm - N/A   Clear
6:35 PM 37.4 °F 34.9 °F 28.4 °F 70% 30.39 in 10.0 mi West 3.5 mph - N/A   Clear
6:55 PM 37.4 °F 34.9 °F 28.4 °F 70% 30.40 in 10.0 mi West 3.5 mph - N/A   Clear
7:15 PM 37.4 °F 34.9 °F 28.4 °F 70% 30.40 in 10.0 mi West 3.5 mph - N/A   Clear
7:35 PM 37.4 °F 34.9 °F 28.4 °F 70% 30.40 in 10.0 mi West 3.5 mph - N/A   Clear
7:55 PM 35.6 °F - 28.4 °F 75% 30.39 in 10.0 mi Calm Calm - N/A   Clear
8:15 PM 33.8 °F - 30.2 °F 87% 30.39 in 10.0 mi Calm Calm - N/A   Clear
8:35 PM 33.8 °F - 28.4 °F 81% 30.39 in 10.0 mi Calm Calm - N/A   Clear
8:55 PM 33.8 °F - 28.4 °F 81% 30.40 in 10.0 mi Calm Calm - N/A   Clear
9:15 PM 33.8 °F - 28.4 °F 81% 30.39 in 10.0 mi Calm Calm - N/A   Clear
9:35 PM 33.8 °F - 28.4 °F 81% 30.39 in 10.0 mi Calm Calm - N/A   Clear
9:55 PM 33.8 °F - 26.6 °F 75% 30.40 in 10.0 mi Calm Calm - N/A   Clear
10:15 PM 33.8 °F 30.8 °F 28.4 °F 81% 30.39 in 10.0 mi SSW 3.5 mph - N/A   Clear
10:35 PM 32.0 °F - 28.4 °F 87% 30.39 in 10.0 mi Calm Calm - N/A   Clear
10:55 PM 32.0 °F - 28.4 °F 87% 30.39 in 10.0 mi Calm Calm - N/A   Clear
11:15 PM 32.0 °F - 28.4 °F 87% 30.39 in 10.0 mi Calm Calm - N/A   Clear
11:35 PM 32.0 °F - 28.4 °F 87% 30.39 in 10.0 mi Calm Calm - N/A   Clear
11:55 PM 33.8 °F - 30.2 °F 87% 30.38 in 10.0 mi Calm Calm - N/A   Clear